Home   Weather   Tananger   Past weeks
Flag for Norway

Past Weather in Tananger, Norway — Yesterday and Last 2 Weeks

Now
54 °F

Clear.


Feels Like: 54 °F
Forecast: 58 / 49 °F
Wind: 2 mph from North

Location: Stavanger / Sola

Current Time: May 20, 2019 at 2:39:46 am

Latest Report: May 20, 2019 at 1:50 am


Visibility: 10 mi

Pressure: 29.89 "Hg

Humidity: 94%

Dew Point: 52 °F

Location of TanangerLocation

Past Weather in Tananger — Graph

°F

Tananger Temperature Yesterday

Maximum temperature yesterday: 64 °F (at 10:50 am)
Minimum temperature yesterday: 45 °F (at 5:50 am)
Average temperature yesterday: 57 °F

High & Low Weather Summary for the Past Weeks

 TemperatureHumidityPressure
High72 °F (May 17, 2:50 pm)100% (May 9, 11:20 pm)30.69 "Hg (May 9, 11:20 pm)
Low34 °F (May 8, 2:20 am)20% (May 17, 3:20 pm)29.42 "Hg (May 9, 3:20 pm)
Average48 °F71%30.05 "Hg
* Reported May 5 1:20 am — May 20 1:50 am, Tananger. Weather by CustomWeather, © 2019

Note: Actual official high and low records may vary slightly from our data, if they occured in-between our weather recording intervals... More about our weather records

Advertising

Tananger Weather History for the Previous 24 Hours

Scroll right to see more
 ConditionsComfort  
Time TempWeatherWind HumidityBarometerVisibility
1:50 am
Mon, May 20
54 °FClear.2 mph94%29.89 "Hg10 mi
1:20 am54 °FClear.5 mph94%29.89 "Hg10 mi
12:50 am54 °FClear.5 mph94%29.92 "Hg10 mi
12:20 am54 °FClear.2 mph94%29.92 "Hg10 mi
11:50 pm
Sun, May 19
54 °FClear.No wind88%29.92 "Hg10 mi
11:20 pm54 °FClear.2 mph88%29.92 "Hg10 mi
10:50 pm55 °FClear.2 mph82%29.89 "Hg10 mi
10:20 pm57 °FClear.3 mph82%29.89 "Hg10 mi
9:50 pm57 °FSunny.3 mph82%29.89 "Hg10 mi
9:20 pm59 °FScattered clouds.5 mph77%29.89 "HgN/A
8:50 pm59 °FScattered clouds.5 mph82%29.89 "HgN/A
8:20 pm59 °FScattered clouds.6 mph82%29.89 "HgN/A
7:50 pm59 °FScattered clouds.8 mph82%29.89 "HgN/A
7:20 pm59 °FPassing clouds.8 mph77%29.89 "HgN/A
6:50 pm59 °FPassing clouds.8 mph77%29.89 "HgN/A
6:20 pm61 °FPassing clouds.9 mph77%29.89 "HgN/A
5:50 pm61 °FPassing clouds.6 mph77%29.89 "HgN/A
5:20 pm61 °FPassing clouds.8 mph72%29.89 "HgN/A
4:50 pm61 °FScattered clouds.9 mph72%29.89 "HgN/A
3:50 pm63 °FScattered clouds.9 mph68%29.89 "HgN/A
3:20 pm63 °FScattered clouds.12 mph68%29.89 "HgN/A
2:50 pm63 °FScattered clouds.12 mph68%29.89 "HgN/A
2:20 pm64 °FScattered clouds.10 mph64%29.89 "HgN/A
1:50 pm64 °FScattered clouds.8 mph64%29.89 "HgN/A
1:20 pm64 °FScattered clouds.9 mph64%29.89 "HgN/A
12:50 pm64 °FScattered clouds.9 mph60%29.86 "HgN/A
12:20 pm64 °FPassing clouds.9 mph60%29.86 "HgN/A
11:50 am64 °FPassing clouds.9 mph64%29.86 "HgN/A
11:20 am64 °FScattered clouds.6 mph64%29.86 "HgN/A
10:50 am64 °FScattered clouds.No wind60%29.86 "HgN/A
10:20 am61 °FScattered clouds.2 mph68%29.86 "HgN/A
9:50 am61 °FScattered clouds.7 mph63%29.86 "HgN/A
9:20 am57 °FPartly sunny.7 mph77%29.86 "HgN/A
8:50 am55 °FPartly sunny.2 mph82%29.86 "HgN/A
8:20 am57 °FBroken clouds.1 mph72%29.86 "HgN/A
7:50 am55 °FSunny.2 mph77%29.86 "Hg10 mi
7:20 am52 °FSunny.2 mph88%29.86 "Hg10 mi
6:50 am50 °FSunny.2 mph88%29.86 "Hg10 mi
6:20 am48 °FSunny.2 mph87%29.86 "Hg10 mi
5:50 am45 °FSunny.2 mph100%29.86 "Hg10 mi
5:20 am46 °FSunny.No wind93%29.86 "Hg10 mi
4:50 am46 °FFog.1 mph93%29.86 "HgN/A
3:50 am48 °FClear.No wind94%29.89 "Hg10 mi
2:50 am48 °FClear.3 mph94%29.89 "Hg10 mi
Weather by CustomWeather, © 2019

See weather overview